Temp
17 17 17 17 17 17 17 17 17 17 17 17 18 18 18 18 18 17 17 17 17 17 17 16 16 16 16 16 16 16 15 15 14 14 14 14 14 14 14 14 14 14 14 14 13 13 14 13 13 13 13 13 12 12 12 12 13 13 13 13 13 13 13 12 10 9 9 9 9 9 9 9 10 9 9 9 9 9 9 9 9 9 9 9 9
17 17 17 17 17 17 17 17 17 17 17 17 17 17 17 17 17 17 17 16 17 17 16 16 16 16 16 16 16 15 15 14 14 14 14 14 13 13 13 13 13 13 13 13 13 13 13 13 13 12 12 12 12 12 12 12 12 13 13 13 13 13 12 12 11 9 9 9 9 9 9 9 9 9 9 9 9 9 9 9 9 9 9 9 9
17 17 17 16 16 16 16 16 16 16 16 17 17 17 17 17 17 17 17 17 17 16 16 16 16 16 16 16 15 15 15 14 14 14 13 13 13 13 13 13 13 13 13 13 13 13 12 12 12 12 12 11 11 11 12 12 12 12 12 12 12 12 12 12 11 9 8 8 9 9 9 9 9 9 9 9 9 9 9 9 9 9 9 9 9
17 17 17 16 16 16 16 16 16 16 16 16 16 17 17 17 17 17 17 17 16 16 16 16 16 16 15 15 15 15 15 14 14 13 13 13 13 13 13 13 13 13 13 13 13 13 12 12 12 12 11 11 11 11 11 11 11 11 12 11 12 12 11 12 12 11 9 9 9 9 9 9 9 9 9 9 9 9 9 9 9 9 9 9 9
17 17 17 16 16 16 16 16 16 16 16 16 16 16 16 16 16 16 16 16 16 16 16 15 15 15 15 15 15 15 14 14 14 14 13 13 13 13 13 13 13 13 13 13 13 12 12 12 11 11 11 11 11 11 11 11 11 11 11 11 11 11 11 11 11 11 10 10 9 9 9 9 9 9 9 9 9 9 9 9 9 9 9 9 9
17 17 17 16 16 16 16 16 16 16 15 16 16 16 16 16 16 16 16 16 16 16 15 15 15 15 15 15 15 14 14 14 14 14 14 13 13 13 13 13 13 13 12 12 12 12 12 12 11 11 11 11 11 11 11 11 11 11 11 10 10 10 10 10 10 10 10 10 9 9 9 9 9 9 9 9 9 9 9 9 9 9 9 9 9
17 17 17 16 16 16 16 16 16 16 15 15 16 16 16 16 16 16 16 16 16 16 15 15 15 15 15 15 14 14 14 14 14 14 13 13 13 13 12 12 12 12 12 12 12 12 12 11 11 11 11 11 11 11 11 11 11 10 10 10 10 10 10 10 10 10 10 9 9 9 9 9 9 9 9 9 9 9 9 9 9 9 9 9 9
17 17 17 17 16 16 16 16 16 16 15 15 16 16 16 16 16 16 16 16 16 16 15 15 15 15 15 14 14 14 14 14 13 13 13 13 13 13 12 12 12 12 12 12 11 11 11 11 11 11 11 11 11 11 11 11 11 11 10 10 10 10 10 10 10 10 10 10 9 9 9 9 9 9 9 9 9 9 8 8 9 9 9 9 9
17 17 17 16 16 16 16 16 16 16 16 16 16 16 16 15 15 16 16 16 16 16 15 15 15 15 14 14 14 14 13 13 13 13 13 13 13 12 12 12 12 12 11 11 11 11 11 11 11 11 11 11 11 11 11 11 11 10 10 10 10 10 10 10 10 9 9 10 9 9 9 9 9 9 9 9 9 9 8 8 9 9 8 9 9
17 17 17 16 16 16 16 16 16 16 16 15 15 15 15 15 15 15 16 16 16 15 15 15 15 15 14 14 14 13 13 13 13 13 13 13 13 12 12 12 12 11 11 11 11 11 10 10 10 10 10 10 11 11 11 11 10 10 10 11 11 10 10 9 10 10 10 9 9 9 9 9 9 9 9 9 9 9 9 8 9 9 8 8 9
17 17 17 16 16 16 16 16 16 16 16 15 15 15 14 14 15 16 16 16 15 15 15 15 15 14 14 14 14 13 13 13 13 13 13 13 12 12 12 12 11 11 11 11 11 10 10 10 10 10 10 10 10 10 11 10 10 10 10 11 11 11 10 10 10 10 10 9 9 9 9 9 9 9 9 9 9 9 9 8 8 8 8 7 7
17 17 17 16 16 16 16 16 16 16 15 15 15 14 14 14 15 15 15 15 15 15 15 15 14 14 14 14 14 13 13 13 13 13 12 12 12 12 12 12 11 11 11 11 11 10 10 10 10 10 10 10 10 10 10 9 9 10 10 10 10 10 10 10 10 10 10 10 9 9 9 9 9 9 9 9 9 9 9 8 8 8 8 7 7
17 17 17 16 16 16 16 16 15 15 15 15 15 14 14 14 14 15 15 15 15 15 15 15 14 14 14 14 14 13 13 13 13 13 12 12 12 12 12 11 11 11 11 11 11 11 10 10 10 10 10 10 10 10 9 9 9 9 10 10 9 9 9 10 10 10 9 10 9 9 9 9 9 9 9 9 9 9 9 9 8 8 8 8 8
17 17 17 16 16 16 16 16 15 15 15 15 14 14 14 14 14 15 15 15 14 14 14 14 14 14 14 14 14 13 13 13 13 13 12 12 12 12 12 11 11 11 11 11 11 11 10 10 10 10 10 10 10 9 9 9 9 9 9 9 9 9 9 9 9 9 9 9 9 9 9 9 9 9 9 9 9 9 9 9 8 8 8 8 8
17 17 17 16 16 16 16 16 15 15 15 15 14 14 14 14 14 14 15 14 14 14 14 14 14 14 14 14 14 14 13 13 13 13 12 12 12 11 11 11 11 11 11 11 11 10 10 10 10 10 10 10 10 9 9 8 9 9 9 9 8 8 9 9 9 9 9 9 9 9 9 9 9 9 9 9 9 9 9 9 8 8 8 8 9
17 17 17 16 16 16 16 16 15 15 15 14 14 14 14 14 14 14 14 14 13 14 14 14 14 15 15 14 14 14 14 13 13 13 12 12 12 11 11 11 11 11 11 11 10 10 10 10 10 10 10 10 10 9 9 8 8 9 9 8 8 9 9 9 9 9 9 9 10 9 9 9 9 9 9 9 9 9 9 9 9 8 8 8 9
17 17 17 16 16 16 16 15 15 15 15 14 14 14 14 14 14 14 13 13 13 13 13 13 14 15 15 14 14 14 14 13 13 13 12 12 11 11 11 11 11 11 11 10 10 10 10 10 10 10 10 10 9 9 9 8 8 8 8 8 9 9 9 9 9 9 9 9 10 9 9 9 9 9 9 9 9 9 9 9 9 9 8 8 8
17 17 17 16 16 16 16 16 15 15 14 14 14 14 14 14 14 14 13 13 13 13 13 13 14 15 15 15 15 14 14 14 13 13 12 12 12 11 11 11 10 10 10 10 10 10 10 10 10 10 10 10 9 9 9 9 8 8 8 8 9 9 9 9 9 9 9 9 9 9 9 9 9 9 9 9 10 9 9 9 9 9 9 8 7
17 17 17 16 16 16 16 16 15 15 14 14 14 14 14 14 14 13 13 14 14 13 13 13 14 14 15 15 14 14 14 14 13 13 13 12 12 11 11 11 10 10 10 10 10 10 10 10 10 10 10 10 9 9 9 9 9 8 8 8 8 9 9 9 9 9 9 9 9 9 9 9 9 9 9 10 10 10 9 9 9 9 9 8 8
17 17 16 16 16 16 16 16 15 15 14 14 14 14 14 14 13 13 13 13 14 13 13 13 14 15 15 14 14 14 14 14 13 13 13 12 12 12 11 11 10 10 10 10 10 10 10 10 10 10 10 10 9 9 9 9 9 9 9 9 9 9 9 9 9 9 9 9 9 9 9 9 9 9 9 10 10 10 9 9 9 9 9 8 8
17 17 16 16 16 16 16 16 16 15 15 15 15 14 14 14 13 13 13 13 13 13 13 13 14 14 14 14 14 14 14 14 13 13 13 12 12 11 11 11 11 11 10 10 10 10 10 10 10 10 10 9 9 9 9 9 9 9 9 9 9 9 9 9 9 9 8 8 8 8 9 9 9 9 9 9 9 9 9 9 9 9 9 8 8
17 16 16 16 15 15 16 16 16 15 15 15 15 14 13 13 12 12 13 13 12 12 12 12 13 13 13 13 13 13 13 13 13 13 13 13 12 11 11 12 11 11 10 10 10 11 11 11 10 10 10 10 10 9 9 9 9 9 9 9 9 9 9 9 9 8 8 8 8 8 9 9 9 9 9 9 9 9 9 9 9 9 9 9 8
16 16 16 15 15 15 16 16 15 15 15 15 14 13 13 13 12 12 12 12 11 11 11 12 12 11 11 11 11 12 13 13 13 13 12 12 12 12 12 12 12 11 11 10 11 11 11 11 11 11 10 10 10 10 9 9 9 9 9 9 9 9 9 8 8 8 8 8 8 8 9 9 9 9 9 9 9 9 9 9 9 9 9 9 9
16 15 15 15 15 15 15 15 15 15 14 14 14 13 12 12 12 12 12 12 12 12 12 12 11 11 10 10 11 11 12 12 12 12 12 12 12 12 12 11 11 11 11 11 11 11 11 11 11 11 11 10 10 10 10 9 9 9 9 9 9 9 8 8 8 8 8 8 8 9 9 9 9 9 9 9 9 9 10 9 9 9 9 9 9
15 15 15 15 15 15 15 15 14 14 14 14 13 12 12 12 12 12 12 12 12 11 11 11 11 11 10 10 10 11 11 11 12 12 12 12 12 12 12 11 11 11 11 11 11 11 11 11 11 11 10 10 10 10 10 9 9 9 9 9 9 8 8 8 8 8 8 8 8 9 9 9 9 9 9 9 9 9 9 9 9 9 9 9 9
15 15 15 15 15 15 14 14 13 13 14 14 13 13 13 12 12 12 12 12 12 11 10 10 10 10 10 10 10 10 10 10 11 12 12 12 12 11 11 11 10 10 10 10 10 11 11 11 11 10 10 10 10 10 10 10 9 9 9 9 9 9 8 8 8 8 8 8 8 9 9 9 9 9 9 9 9 9 9 9 9 9 9 9 9
15 14 14 15 15 14 14 13 13 13 13 13 13 13 13 13 12 12 12 11 10 10 10 10 10 10 9 9 10 10 10 10 11 11 11 11 11 11 11 10 10 9 9 10 10 10 10 10 10 10 10 9 9 9 9 9 9 9 9 9 9 9 9 9 8 8 8 8 8 8 9 8 8 9 9 9 9 9 9 9 9 10 10 9 9
15 14 14 14 14 14 13 13 13 13 13 13 12 12 12 12 12 12 12 12 11 11 11 11 11 11 10 10 9 9 9 10 11 11 11 12 11 11 10 10 9 9 9 10 10 10 10 9 9 9 9 9 8 8 8 9 9 9 9 9 9 9 8 8 8 8 8 8 8 8 8 8 8 9 9 9 9 10 9 9 10 10 10 9 9
15 14 14 14 13 13 13 13 12 12 12 12 12 12 12 13 13 13 13 13 14 14 13 12 12 12 11 11 10 10 9 11 12 12 12 12 12 11 11 10 10 10 10 10 10 9 9 8 8 9 8 8 8 8 8 8 9 9 9 9 9 8 8 8 8 8 8 8 8 8 8 8 8 9 9 9 10 10 9 9 9 10 10 9 9
14 14 14 13 13 12 12 12 12 12 12 12 11 11 11 12 12 12 12 13 14 14 14 14 14 13 12 12 12 11 12 13 13 12 11 11 11 11 11 11 11 10 10 9 9 8 8 8 8 8 8 8 8 8 8 8 8 8 9 9 9 8 8 8 8 8 8 8 8 8 8 8 8 9 9 9 10 10 10 9 9 9 9 9 9
13 13 13 13 12 12 12 12 12 11 11 11 11 11 10 10 11 11 12 12 12 13 13 13 13 13 12 12 12 11 12 12 12 12 11 11 11 11 11 11 10 10 9 9 8 8 7 7 7 7 8 8 8 8 8 8 8 8 8 9 9 8 8 8 8 8 8 7 8 8 8 8 8 9 9 9 9 9 10 10 9 9 9 9 9
13 13 13 12 12 12 12 12 11 11 11 10 10 10 10 10 10 10 11 11 11 12 12 12 12 12 12 12 12 12 11 11 11 11 11 11 11 11 10 10 10 9 9 8 8 7 7 7 7 7 7 7 7 7 8 8 8 8 8 8 8 8 9 9 8 8 7 7 8 8 8 8 8 8 8 8 9 9 10 10 10 9 9 9 9
13 13 12 11 11 11 12 11 11 11 10 10 10 10 10 10 9 9 9 10 10 11 11 11 11 11 11 12 12 12 12 11 11 11 11 10 10 10 9 9 9 8 8 7 7 7 7 7 7 7 7 7 7 7 7 7 7 7 7 8 8 8 9 9 8 7 7 8 8 8 8 8 8 8 9 9 9 9 10 10 9 9 9 9 9
13 12 12 11 11 11 11 11 11 11 11 11 11 11 11 11 10 10 9 9 9 9 10 10 10 10 11 11 11 11 11 11 11 10 10 10 9 9 9 8 8 7 7 7 7 7 7 7 7 7 7 7 7 7 7 7 7 7 7 7 7 8 8 8 8 8 8 8 8 8 8 9 9 9 9 9 9 9 9 10 9 9 9 9 9
12 12 11 11 11 11 11 11 11 11 11 11 11 11 11 11 11 11 9 9 8 8 8 9 9 10 10 10 10 10 10 10 10 9 9 9 9 9 8 7 7 6 6 6 7 7 7 7 7 7 7 7 7 7 6 6 6 6 6 6 7 7 7 8 8 8 8 8 8 9 9 9 9 9 9 9 9 9 9 10 9 9 9 9 9
11 11 11 11 11 11 11 11 11 11 11 11 11 11 11 11 11 10 10 9 9 8 8 9 9 10 9 9 9 9 9 9 9 9 9 9 9 9 8 7 7 7 7 7 7 7 7 7 7 7 7 7 6 6 6 6 6 6 6 6 6 6 6 7 8 8 8 8 8 9 9 9 9 9 8 8 8 9 9 9 9 9 9 9 9
11 10 10 10 10 10 10 10 11 11 11 10 10 10 10 10 10 10 10 9 9 8 8 8 8 8 8 8 9 9 9 9 9 9 8 8 8 8 8 8 8 8 8 8 8 8 7 7 7 7 7 7 7 7 6 6 6 6 6 6 6 6 6 6 7 7 7 7 8 8 8 8 8 8 8 8 8 9 9 9 9 9 9 9 8
11 10 10 10 10 10 10 10 10 10 10 10 10 10 10 10 10 10 9 9 8 8 8 8 8 8 8 8 8 8 8 8 8 8 7 7 7 7 8 8 8 8 8 8 8 8 8 8 8 8 7 7 7 7 6 6 6 6 5 5 5 5 5 6 6 6 6 7 7 7 8 8 8 8 8 8 9 9 9 9 9 9 9 8 8
10 10 10 10 10 10 10 10 10 10 10 10 10 10 10 9 9 9 8 8 8 8 8 8 8 8 8 8 8 8 8 8 7 7 7 7 8 8 8 8 8 8 8 8 8 8 8 8 8 8 8 7 7 7 7 6 6 5 5 5 5 5 5 5 5 6 6 6 7 7 7 8 8 8 8 8 9 9 9 9 9 9 9 8 8
10 10 10 10 10 10 10 10 10 10 10 10 10 10 10 9 9 9 8 8 8 8 9 9 9 8 8 8 8 8 8 8 8 8 8 8 8 8 8 8 9 9 9 9 9 9 9 9 8 8 8 8 7 7 7 6 6 5 5 5 5 5 5 5 5 5 6 6 6 7 7 7 7 8 8 8 9 9 9 9 9 9 8 8 9
10 10 10 11 11 11 10 10 10 10 10 10 10 10 10 10 9 9 9 9 8 8 9 9 9 9 9 9 9 9 9 9 9 9 9 9 9 9 9 9 9 9 9 9 9 9 9 9 8 8 8 7 7 7 7 6 6 6 5 5 5 5 5 5 5 6 6 6 6 6 7 7 7 7 8 8 9 9 9 9 9 9 9 9 9
10 10 10 10 11 10 10 9 10 10 10 10 10 10 10 10 9 9 9 9 9 9 8 8 8 8 8 8 8 8 8 8 8 8 8 8 9 9 9 9 9 9 9 9 9 9 8 8 8 8 7 7 7 7 7 7 6 6 6 5 5 5 5 6 6 6 6 6 6 6 7 7 7 7 8 8 8 9 9 9 9 9 9 9 8
10 10 10 10 10 10 10 10 10 10 10 10 10 10 10 10 9 9 9 9 9 9 8 8 8 8 8 8 8 8 8 8 8 8 8 8 9 9 9 9 9 9 9 9 8 8 8 7 7 7 7 7 7 7 7 7 6 6 6 5 5 5 5 5 6 6 6 6 6 7 7 7 7 7 8 8 8 8 9 9 9 8 8 8 8
11 10 10 10 10 10 10 10 10 10 10 10 10 9 9 9 9 9 9 9 8 8 8 8 8 8 8 8 8 8 7 8 8 8 8 8 8 9 9 9 8 8 8 8 8 7 7 7 7 7 7 7 7 7 7 6 6 6 6 6 5 5 5 6 6 6 6 6 6 6 6 7 7 8 8 8 8 8 8 8 8 8 8 8 8
11 10 10 10 10 9 9 9 10 10 10 9 9 9 9 9 9 9 9 9 9 9 9 9 8 8 8 8 8 8 8 8 8 8 8 8 8 8 8 8 8 8 8 7 7 7 7 7 7 7 7 7 6 6 6 6 6 6 6 6 6 6 6 6 6 6 6 6 6 6 6 7 7 8 8 8 8 8 8 8 8 8 8 8 8
12 11 11 10 9 9 9 9 10 10 9 9 9 9 9 9 9 9 9 9 9 9 9 9 9 9 9 9 8 8 8 8 8 8 8 8 8 8 8 8 8 8 7 7 7 7 7 7 7 7 7 6 6 6 6 6 6 6 6 6 6 6 6 6 6 6 6 6 6 6 7 7 7 8 8 8 7 7 7 8 8 8 8 8 8
12 11 11 10 10 10 9 9 9 9 9 9 9 9 9 9 9 9 9 9 9 9 9 9 9 9 9 9 9 8 8 8 8 8 8 8 8 8 8 8 8 8 7 7 7 7 7 7 7 7 7 6 6 6 6 6 6 6 6 6 6 6 6 6 6 6 6 6 6 7 7 7 7 8 8 7 7 8 8 8 8 8 8 8 8
11 11 10 10 10 9 9 9 9 9 9 9 9 9 9 9 9 9 9 9 9 9 9 9 8 8 8 8 8 8 8 8 8 8 8 8 8 8 8 7 7 7 7 7 7 7 7 7 7 7 7 7 7 7 7 6 6 6 6 6 6 6 6 6 6 6 6 6 7 7 7 7 7 8 8 8 8 8 8 8 8 8 8 8 8
11 11 10 10 10 10 9 9 9 9 9 9 9 9 9 9 9 9 9 9 9 9 9 9 8 8 8 8 8 8 8 7 7 8 8 8 8 8 8 7 8 8 8 8 8 7 7 7 7 7 7 7 7 7 7 7 7 6 6 6 6 6 6 6 6 6 7 7 7 7 7 7 7 7 7 8 8 8 8 8 8 8 8 8 7
12 11 11 11 11 10 10 10 10 10 9 9 9 9 9 9 9 9 9 9 9 9 9 9 9 8 8 8 8 8 8 8 8 8 8 8 8 8 8 8 8 8 8 8 8 8 7 7 7 7 7 7 7 7 7 7 7 7 7 6 6 6 6 6 7 7 7 7 7 7 7 7 7 7 7 7 7 7 7 8 8 7 7 7 7
12 12 12 11 11 11 11 11 11 10 10 10 10 9 9 9 9 9 9 9 9 9 9 9 9 9 9 8 8 8 8 8 8 8 8 8 8 8 8 8 8 8 8 8 8 7 7 7 7 7 7 7 7 7 7 7 7 7 7 7 7 6 6 7 7 7 7 7 7 7 7 7 7 7 7 7 7 7 7 7 7 7 7 7 6
Height
736 740 743 747 751 754 757 759 763 766 768 770 772 775 778 781 783 786 788 791 794 797 800 803 805 808 810 811 812 813 814 815 817 818 819 820 821 823 825 827 828 829 830 832 833 834 835 836 837 839 840 841 842 843 843 844 844 844 844 845 845 846 847 848 850 853 856 856 857 857 858 858 857 857 857 857 856 855 853 852 851 849 848 848 848
732 736 741 745 748 751 754 757 760 763 766 768 771 773 776 779 781 784 786 790 792 795 798 801 804 806 808 810 811 812 813 814 816 817 818 819 820 822 824 826 827 828 830 831 832 833 835 836 837 838 840 841 842 843 843 844 844 844 844 845 845 846 847 848 849 852 854 856 856 857 857 857 857 856 856 855 854 854 853 852 850 848 847 847 847
728 734 739 743 746 750 753 756 758 761 763 766 768 771 774 777 780 782 785 788 791 794 797 799 802 805 807 808 809 811 812 813 814 815 817 818 819 821 823 825 826 827 829 830 831 833 834 835 837 838 839 841 842 843 844 844 844 845 845 845 846 846 847 848 849 851 853 855 856 857 857 857 857 856 855 854 854 853 852 851 849 848 846 846 846
726 731 736 740 744 748 750 753 756 759 761 763 766 769 772 775 778 781 784 786 789 793 796 798 801 803 805 806 808 809 810 811 813 814 816 817 819 820 822 824 825 826 828 829 831 832 834 835 836 838 839 841 842 843 844 844 845 845 846 846 847 847 848 848 849 850 852 854 856 857 857 857 857 856 856 855 854 853 852 850 848 846 845 845 845
724 728 733 738 742 745 748 750 753 756 758 761 764 767 770 773 776 779 782 785 788 791 794 797 799 801 803 804 806 807 809 811 812 813 815 816 818 820 821 823 824 826 827 829 830 832 833 834 836 837 839 840 842 843 843 844 845 846 846 847 848 848 848 849 850 850 851 853 855 856 856 856 857 857 856 855 853 852 851 849 847 845 844 844 844
721 726 730 735 739 742 745 747 750 753 756 759 762 765 768 771 774 777 780 783 786 789 792 795 797 799 801 802 804 806 808 809 811 812 814 815 817 819 821 822 823 825 827 828 830 831 833 834 836 837 839 840 841 842 843 844 845 846 847 847 848 848 849 849 850 850 851 852 853 854 855 855 855 856 856 855 853 852 851 848 846 844 843 844 844
718 723 727 732 735 739 741 744 747 751 754 757 760 763 766 769 772 775 778 781 784 787 790 792 795 797 799 800 802 804 806 808 810 811 813 814 816 818 819 821 822 824 826 827 829 831 832 834 835 837 839 840 841 842 843 844 845 846 846 847 847 847 847 848 848 848 849 850 851 852 853 852 852 853 854 853 852 851 850 847 844 844 843 843 842
716 720 725 729 732 735 738 741 745 749 752 755 759 761 764 767 770 773 776 779 782 785 787 790 793 795 797 799 801 803 805 807 808 810 812 813 815 817 818 820 821 823 825 827 828 830 832 834 835 837 839 840 841 842 843 843 844 844 845 845 845 844 844 845 845 845 846 846 848 849 850 850 849 851 852 852 851 850 848 846 844 843 843 842 841
712 717 721 725 728 732 736 739 743 747 750 754 756 759 762 765 768 771 774 777 780 783 786 789 791 794 796 798 800 801 803 805 807 809 811 812 814 815 817 818 820 822 824 826 828 830 831 833 835 836 838 839 840 841 841 841 842 843 843 844 844 844 844 844 844 844 844 844 846 847 849 848 848 850 850 850 850 849 847 845 843 843 843 842 841
710 714 718 722 726 730 733 737 741 745 748 751 754 757 760 763 766 769 772 775 778 781 784 787 789 792 794 796 798 800 802 804 806 808 810 812 813 815 816 817 819 821 823 825 827 829 830 832 834 836 837 838 838 839 839 839 840 841 842 843 843 843 843 843 843 844 844 844 845 847 847 848 848 849 849 849 849 848 847 845 844 843 843 841 840
708 711 715 719 723 727 731 735 738 742 746 749 752 755 758 761 764 767 770 773 776 779 782 785 788 790 792 794 796 798 800 803 805 808 810 811 813 814 815 817 818 820 822 823 825 827 829 831 833 834 835 835 836 837 837 838 839 841 842 843 843 843 843 843 844 845 845 846 846 847 847 847 848 848 849 849 848 848 846 845 844 843 842 841 839
705 709 713 717 721 725 729 733 736 739 743 747 750 753 756 759 762 765 768 771 774 778 781 783 786 788 791 793 795 797 799 802 804 807 809 810 812 813 815 816 818 819 821 823 825 827 828 830 831 833 833 834 835 836 837 838 839 841 842 843 843 844 845 845 845 846 846 846 847 847 847 847 848 848 848 848 848 847 845 844 844 843 842 841 839
703 707 711 715 718 722 726 730 734 737 740 744 748 751 755 757 760 763 766 769 773 776 779 782 784 787 789 791 794 796 798 801 803 805 807 809 811 812 814 815 817 819 821 822 824 826 827 829 830 831 832 834 835 836 837 838 839 840 841 842 843 844 845 846 846 846 847 847 847 847 847 847 847 848 848 848 847 846 845 844 843 842 841 840 839
700 704 709 712 715 720 724 727 732 735 738 742 746 749 752 755 759 762 765 768 771 774 777 780 783 785 788 790 792 795 797 799 802 804 806 808 810 811 813 815 817 818 820 822 824 825 827 828 829 830 832 833 834 835 837 838 839 840 840 841 843 844 845 845 846 846 846 847 847 846 846 847 847 847 847 847 846 846 844 844 843 842 841 839 838
697 701 705 709 713 717 721 725 729 732 735 739 743 747 750 754 757 760 763 766 769 772 776 778 781 784 786 789 791 793 796 798 801 803 805 807 809 811 812 814 816 818 819 821 823 824 826 827 828 830 831 832 833 834 836 837 838 839 840 841 842 843 844 844 845 845 846 846 846 846 846 846 846 846 846 846 846 845 844 843 842 841 840 839 838
695 699 702 706 710 714 718 722 726 730 733 737 741 744 748 752 755 758 761 764 768 771 774 776 779 782 785 787 789 791 794 796 799 801 804 806 808 810 811 813 815 817 819 820 822 823 824 826 827 829 830 831 832 833 835 836 837 839 840 841 842 842 843 843 844 844 844 845 845 845 845 845 845 845 845 845 844 844 843 842 841 840 839 838 837
693 697 700 703 707 711 715 719 723 727 731 734 738 742 746 750 753 756 759 763 766 769 772 775 777 780 782 785 787 789 791 794 797 800 802 805 807 808 810 812 814 815 817 819 820 822 823 824 825 827 829 830 831 832 833 835 836 838 839 840 841 841 842 842 843 843 843 844 844 844 844 844 844 844 843 843 843 843 842 841 840 839 838 837 836
691 694 697 700 704 708 712 716 721 725 728 732 736 741 744 748 751 754 757 760 764 767 770 772 775 778 780 783 785 787 789 792 795 798 801 803 805 807 809 810 812 814 816 817 819 820 821 822 824 825 827 828 829 830 832 833 835 837 838 839 839 840 840 841 841 842 842 842 843 843 843 843 842 842 842 842 842 841 841 840 840 839 838 837 836
687 690 693 697 701 706 710 715 719 723 727 731 735 739 742 746 749 752 755 757 761 764 767 770 773 776 778 781 783 785 788 791 794 796 798 801 804 806 807 809 811 813 814 816 817 818 820 821 822 824 825 826 827 828 830 832 833 835 837 838 838 838 839 840 840 840 841 841 841 842 841 841 841 841 841 840 840 840 840 839 839 838 837 836 835
683 687 692 696 700 704 709 713 717 721 725 729 734 737 740 744 747 750 753 756 759 762 764 767 771 774 776 779 781 784 786 789 792 794 796 799 801 803 805 807 809 810 812 814 816 817 818 819 821 822 823 824 826 827 828 830 832 834 835 836 837 837 838 839 839 839 840 840 840 840 840 840 840 840 839 839 839 839 839 838 838 837 836 835 834
683 687 690 694 698 702 707 711 715 719 723 727 732 735 738 741 744 747 751 755 758 759 762 765 768 772 774 777 779 781 784 787 790 792 795 797 799 801 803 805 807 808 810 812 814 815 816 817 818 820 821 823 824 825 827 828 830 832 833 834 835 836 837 838 838 838 838 838 838 839 839 839 839 839 838 838 837 837 837 837 836 836 835 834 833
682 685 688 692 696 700 705 710 714 718 722 725 729 732 736 739 743 746 749 753 756 758 761 764 767 770 772 774 776 779 782 785 788 791 793 795 797 799 801 803 804 806 808 810 812 813 814 815 816 818 819 821 822 823 825 826 828 829 830 832 833 834 835 836 836 836 836 837 837 837 837 837 837 837 837 836 836 836 835 835 835 834 834 833 832
681 684 686 690 694 699 703 708 712 716 719 722 724 728 732 737 741 746 749 752 755 758 760 763 765 768 769 772 774 776 779 783 786 789 792 794 795 797 798 800 802 804 806 808 809 811 812 813 815 816 817 819 820 821 823 824 826 827 828 830 831 832 833 833 834 834 834 835 834 834 834 835 835 835 835 835 835 834 834 834 833 833 832 832 831
679 682 685 688 692 697 701 705 709 713 715 718 722 726 731 735 739 744 748 750 751 754 756 759 762 765 767 769 771 774 777 780 783 787 789 791 793 795 797 799 801 802 804 806 807 809 811 812 813 814 816 817 818 820 821 822 824 825 827 828 829 830 830 831 832 832 832 832 832 832 832 833 833 833 833 833 833 833 833 833 832 832 831 831 830
676 679 682 686 690 695 699 703 706 709 712 715 719 724 729 733 736 739 743 746 748 750 753 756 758 762 764 766 769 772 774 777 781 784 787 789 791 793 796 798 799 801 803 804 806 808 810 811 812 813 814 815 816 818 818 820 821 822 824 826 826 827 828 829 829 830 830 830 830 830 830 831 831 831 831 831 831 831 831 831 831 830 830 829 828
675 676 678 682 688 692 697 700 703 706 709 713 716 720 724 728 732 735 738 742 745 749 752 755 758 761 764 765 767 770 773 776 779 782 784 787 789 792 794 796 798 800 802 803 805 807 808 809 810 811 812 813 814 815 816 817 818 820 822 823 823 824 825 826 827 827 827 827 827 827 828 829 829 829 829 829 829 829 829 829 828 828 828 827 826
674 677 679 682 687 691 695 698 701 705 708 711 715 718 722 725 729 732 735 740 745 749 753 757 760 763 765 767 768 770 772 774 777 779 782 784 787 789 792 794 797 799 800 802 803 804 806 807 808 809 810 811 812 813 813 814 816 817 818 819 820 821 822 823 824 824 824 824 825 825 826 827 827 827 827 827 827 827 827 826 826 825 825 825 824
674 677 680 682 686 689 693 696 700 703 707 710 713 717 720 723 726 729 732 736 740 745 749 752 755 758 761 764 766 769 771 772 773 776 778 781 784 787 789 792 794 796 798 799 801 802 803 805 806 807 808 808 809 810 811 812 813 814 815 816 817 818 819 820 821 821 821 822 823 823 824 825 825 825 825 825 824 825 825 824 824 823 823 823 823
672 676 679 682 685 688 690 694 698 702 706 710 713 716 719 721 724 727 730 733 736 739 743 747 750 752 756 760 762 765 767 769 770 773 776 779 782 784 787 789 791 794 796 798 799 800 801 802 804 805 805 806 807 808 809 810 810 811 812 813 814 815 816 817 817 818 819 820 821 821 822 822 822 822 822 822 822 822 822 822 821 821 821 821 820
669 674 679 683 686 688 690 693 697 701 705 709 713 716 719 722 724 727 730 732 735 738 741 744 747 750 754 757 760 762 764 766 769 772 775 777 780 783 785 788 790 792 794 796 798 798 799 801 802 802 803 804 804 805 806 807 808 809 810 810 811 812 813 814 815 816 817 818 819 819 820 820 819 819 819 819 819 819 819 819 819 819 819 819 818
665 671 676 680 684 687 690 694 698 701 704 708 711 715 719 723 726 729 731 733 736 739 741 744 747 750 753 756 759 762 764 766 768 771 773 775 778 781 784 787 789 791 793 795 796 797 798 799 799 800 800 801 802 803 804 805 805 806 807 808 809 810 811 812 812 813 814 816 816 817 817 817 817 817 816 816 816 816 817 817 817 817 817 817 816
658 665 671 677 681 685 689 693 697 701 704 707 710 714 718 722 726 730 732 734 736 739 741 744 747 749 752 755 758 761 763 765 767 769 771 774 776 779 782 785 788 790 792 793 794 795 795 796 797 797 798 798 799 800 801 802 803 804 805 806 807 808 808 809 810 811 812 813 814 814 814 814 814 814 814 814 814 814 814 814 814 814 814 814 814
653 661 667 673 678 682 686 690 694 697 701 706 710 713 716 719 723 727 731 734 737 739 741 743 746 748 751 753 756 759 761 763 765 767 770 773 775 778 781 783 786 788 790 791 792 792 793 794 794 794 795 796 796 798 799 800 801 802 803 804 805 806 806 807 807 808 809 810 811 812 812 812 812 812 812 812 811 811 811 811 811 811 812 812 812
652 658 663 668 674 678 683 687 691 695 699 704 708 711 715 718 720 724 728 733 736 739 741 742 745 747 749 752 755 758 760 762 764 766 769 771 774 776 779 781 784 786 787 788 789 790 790 791 791 792 792 793 794 795 796 797 798 799 800 801 802 803 804 805 805 805 806 808 808 809 809 810 809 809 809 809 809 809 809 809 809 809 809 810 810
655 658 662 667 672 677 681 685 690 694 699 703 707 710 714 717 720 722 726 730 733 737 739 741 744 746 749 752 755 757 759 761 764 766 768 769 771 774 776 779 781 783 784 785 786 787 787 788 788 789 789 790 791 792 792 794 795 796 797 798 798 800 801 802 802 803 804 804 805 806 806 807 807 807 807 806 806 806 806 806 807 807 807 808 808
660 663 667 670 673 676 680 684 688 693 698 703 707 710 713 716 719 722 726 729 732 735 738 740 742 746 749 752 754 756 759 761 763 765 766 768 769 771 773 776 778 780 781 782 783 784 785 785 785 786 787 787 788 789 790 791 792 792 794 795 795 796 797 798 799 800 801 802 802 803 804 804 804 804 804 804 804 804 804 804 805 805 806 806 807
663 667 670 673 676 677 680 684 689 694 699 703 707 710 714 717 720 723 726 729 732 734 736 739 741 745 748 751 753 755 758 760 763 765 766 768 769 770 772 774 776 777 779 780 781 781 782 782 783 784 784 785 786 786 787 788 789 790 791 792 792 793 794 795 796 797 798 799 800 800 801 802 802 802 802 802 802 801 801 802 802 803 804 804 804
665 668 671 675 679 680 682 686 691 695 700 704 707 711 714 718 720 723 726 729 731 733 735 738 741 744 746 749 752 754 757 759 761 763 765 766 768 769 771 773 774 775 776 778 778 779 779 780 781 781 782 782 783 784 785 785 786 787 788 789 789 790 791 792 793 795 795 796 797 798 799 799 800 800 800 800 799 799 799 800 800 801 802 802 802
668 671 674 678 681 682 684 688 692 697 701 705 708 711 714 718 721 723 726 728 730 733 735 738 740 743 745 748 750 753 755 757 759 762 763 765 766 768 770 771 772 773 774 775 776 777 777 778 778 779 780 780 781 782 782 783 784 784 785 786 787 787 788 789 790 792 793 793 794 795 796 797 797 798 798 797 797 796 797 797 798 799 800 800 800
671 675 678 680 683 685 687 689 693 697 701 705 708 712 715 717 720 723 725 728 730 733 735 737 739 742 744 746 749 751 753 755 757 760 762 763 765 766 768 769 770 771 772 773 774 774 775 775 776 777 778 778 779 780 780 781 781 782 783 784 784 785 786 787 788 789 790 791 791 793 794 794 795 795 795 795 794 794 794 795 796 797 798 798 798
673 677 680 682 683 686 688 691 695 698 702 705 709 712 715 717 720 722 725 728 730 732 735 737 739 741 744 746 748 750 751 753 756 758 760 761 763 764 766 767 768 769 770 771 771 772 773 773 774 775 775 776 777 778 779 779 780 780 781 781 782 782 783 784 785 786 787 788 789 790 791 792 792 792 792 792 792 792 793 794 795 795 795 795 795
675 677 680 682 684 687 689 693 696 700 703 707 710 713 715 717 720 723 726 728 730 733 735 738 740 742 744 745 747 749 750 752 754 756 758 759 761 762 764 766 767 767 768 769 770 770 771 771 772 772 773 774 775 776 777 777 778 778 779 779 780 781 781 782 783 784 785 786 787 787 788 789 789 789 789 790 790 791 791 792 793 793 793 793 793
676 678 680 683 686 688 691 694 697 701 704 708 711 714 716 718 721 724 726 729 731 733 735 737 739 741 743 745 746 748 749 751 752 754 756 758 759 761 763 764 765 766 767 767 768 768 769 769 769 770 770 771 773 773 774 775 776 776 777 777 778 779 780 780 781 782 783 784 784 785 785 786 786 786 787 788 788 789 790 790 790 791 791 791 791
677 680 683 685 688 691 693 696 698 702 705 708 712 715 717 720 722 725 727 729 731 733 735 737 739 740 742 743 745 746 748 749 751 752 754 756 758 760 761 763 763 764 765 765 765 766 766 766 766 767 768 769 770 771 772 773 773 774 775 775 776 776 777 778 779 780 781 782 782 783 783 783 783 784 785 785 786 787 788 788 788 788 788 788 788
679 682 685 687 690 693 695 698 700 703 707 710 713 716 719 721 723 725 726 728 731 733 735 737 738 739 741 742 744 745 746 748 749 751 753 755 757 759 760 761 762 762 763 763 763 763 763 764 764 764 765 766 767 768 769 770 771 772 772 773 773 774 775 776 777 778 779 780 780 781 781 781 781 782 783 784 785 785 785 785 786 786 785 785 786
681 684 687 690 693 695 698 700 703 706 709 712 714 716 719 720 722 724 726 728 731 733 735 736 738 739 740 741 742 744 745 747 749 750 752 754 756 758 759 760 760 761 761 761 761 762 762 762 762 762 763 764 765 766 767 768 769 769 770 771 771 772 773 774 775 776 777 778 778 779 779 779 780 781 782 782 783 783 783 783 783 783 783 783 783
684 687 690 692 695 697 700 703 706 708 710 713 714 716 718 720 722 724 727 729 731 733 734 736 737 738 739 740 741 743 744 746 748 750 752 754 755 757 758 758 759 759 759 759 760 760 760 760 760 761 762 762 763 764 765 765 766 767 768 768 769 770 771 772 773 774 775 776 776 777 777 778 778 779 780 780 780 780 780 781 781 781 781 781 781
688 690 693 695 697 699 702 704 707 709 711 713 715 716 718 721 723 725 727 729 730 732 733 735 736 737 738 740 741 742 744 746 748 750 752 753 754 756 756 756 757 757 757 757 758 758 758 759 759 760 760 761 762 762 763 764 764 765 766 766 767 768 769 770 771 772 773 774 774 775 775 776 776 777 777 777 778 778 778 778 779 779 779 779 778
691 692 695 697 698 701 703 705 707 710 712 714 716 718 720 722 723 725 727 728 730 731 732 734 735 736 738 739 741 742 744 746 748 749 751 752 753 754 754 755 755 755 755 755 756 756 756 757 758 758 759 760 760 761 762 762 763 763 764 764 765 766 767 767 768 769 771 771 772 773 773 773 774 774 775 775 775 775 776 776 776 776 776 776 776
692 694 696 698 700 702 705 707 709 712 714 715 717 719 721 722 724 725 727 728 729 731 732 734 735 736 738 739 741 742 744 746 747 749 750 751 752 752 752 753 753 753 753 753 754 754 755 755 756 757 757 758 759 759 760 760 761 761 762 762 763 763 764 765 766 767 768 769 769 770 770 771 771 771 772 772 773 773 773 773 773 773 773 773 773
694 696 698 700 702 704 706 708 710 713 715 717 718 720 721 723 724 726 727 728 729 731 732 734 735 737 738 739 741 743 744 745 747 748 749 749 750 750 751 751 751 751 752 752 752 752 753 754 754 755 756 756 757 758 758 759 759 760 760 760 761 761 762 763 764 764 765 766 767 767 768 768 768 769 769 770 770 770 770 770 770 770 770 770 770
Wind_Speed
36 36 36 36 35 36 37 36 35 35 34 34 34 32 32 31 30 30 30 30 30 30 29 28 26 24 22 21 21 21 21 20 17 14 15 16 15 16 16 16 16 16 15 15 14 13 13 13 12 12 11 11 10 9 9 8 8 9 9 10 12 12 14 15 12 11 10 9 9 9 5 4 4 4 5 6 7 8 8 8 8 8 7 6 7
37 36 36 36 36 36 36 35 35 35 34 34 33 33 32 31 30 30 30 31 31 30 29 27 25 24 22 21 21 21 21 19 16 16 18 17 17 17 17 17 17 17 16 16 15 14 14 13 13 13 12 11 11 10 9 8 7 8 8 8 10 12 13 15 16 14 11 10 10 8 5 4 5 5 4 5 6 6 7 8 9 9 8 7 8
37 35 35 35 35 35 34 34 34 34 34 34 34 33 32 32 31 31 31 31 31 30 29 27 25 24 22 22 21 21 21 19 16 17 18 17 17 17 17 17 17 16 16 16 16 15 15 14 14 14 13 12 12 11 9 8 7 6 7 7 8 9 10 13 15 14 13 12 10 7 6 6 6 5 4 4 6 7 8 8 10 10 9 8 8
35 35 35 35 34 34 34 34 34 34 34 34 34 33 32 32 31 31 31 31 31 30 28 27 25 24 23 22 22 21 21 19 17 17 17 16 16 16 16 16 16 15 15 16 16 16 16 16 16 16 15 14 14 13 10 8 7 6 6 6 6 7 9 11 12 13 14 12 8 7 7 6 5 4 3 5 6 7 8 8 10 12 11 9 8
34 35 35 34 34 34 34 34 35 35 34 34 34 33 33 32 31 31 31 32 32 30 29 27 26 24 23 23 22 21 20 19 18 17 17 16 15 15 15 15 15 15 15 16 16 17 16 17 17 17 17 16 15 14 12 10 8 6 6 6 6 7 9 9 8 10 12 12 9 8 8 7 5 2 4 6 6 7 8 8 10 13 13 10 7
35 35 35 34 34 34 34 35 35 35 34 33 33 33 33 32 31 31 32 32 32 31 29 28 26 24 23 23 22 21 20 19 18 18 18 17 16 15 15 15 15 15 16 16 16 16 16 17 18 19 18 18 17 15 13 11 9 8 7 6 6 7 8 9 8 9 11 12 11 10 9 7 4 1 5 7 7 8 9 9 11 14 15 12 9
35 35 35 34 34 34 35 35 36 35 34 33 33 33 33 32 31 31 32 32 32 31 29 28 25 24 23 23 22 20 19 18 18 18 18 18 17 17 16 16 16 17 17 17 16 16 16 17 18 18 17 17 16 15 13 11 9 8 7 7 8 8 9 10 10 11 12 13 13 12 11 9 6 2 3 5 5 7 10 11 13 15 15 13 11
35 35 34 34 34 34 35 35 35 35 33 33 33 33 32 32 31 31 31 31 31 30 29 26 25 24 23 23 21 20 19 19 20 20 19 19 18 17 17 17 18 18 17 17 16 16 17 17 17 17 15 14 14 13 12 11 11 11 10 10 11 12 13 13 14 15 15 16 16 14 13 11 8 4 1 3 3 5 8 10 13 14 14 14 12
36 35 35 35 34 34 34 34 34 34 33 33 33 33 32 32 32 31 31 30 29 28 26 25 24 24 24 23 21 20 20 20 20 20 20 19 19 18 18 18 18 19 18 18 17 17 17 17 17 16 14 14 13 13 12 13 13 13 13 14 15 15 15 15 16 17 17 17 16 15 13 11 8 4 1 1 2 4 6 8 10 11 12 13 11
34 34 35 35 34 34 33 33 33 33 33 33 32 32 32 32 32 31 30 29 28 27 25 24 25 25 25 24 22 21 21 21 20 20 20 19 19 19 19 19 19 19 19 20 20 19 18 17 17 16 15 15 15 15 16 15 15 15 14 15 16 16 16 17 17 18 18 17 16 15 14 12 8 4 1 1 1 2 4 6 8 9 11 13 12
33 34 34 34 34 34 33 33 34 34 34 33 32 32 32 32 32 31 30 29 28 27 25 25 25 26 25 24 23 22 22 21 20 20 19 19 19 19 19 20 20 20 20 21 21 20 19 18 18 17 18 18 18 18 18 16 15 14 14 14 16 16 16 17 17 17 16 15 14 13 13 11 7 4 1 1 1 1 2 4 6 8 10 11 10
34 33 33 33 33 34 34 33 34 34 34 32 32 32 32 32 32 31 30 29 28 27 26 26 26 26 25 24 23 22 22 21 20 19 19 19 19 19 20 20 21 21 21 21 21 21 20 19 19 20 20 19 19 19 17 14 14 14 13 13 14 14 14 14 15 14 14 13 12 12 11 9 6 3 2 2 2 1 2 3 5 7 9 9 10
33 32 32 32 34 35 34 34 34 35 34 33 32 32 32 32 32 31 30 29 29 29 27 26 26 26 26 24 23 22 21 20 20 19 20 20 19 19 20 21 21 21 21 22 21 21 21 21 21 22 20 19 20 19 16 13 13 13 13 13 13 13 13 12 10 10 10 9 9 9 10 8 5 2 2 3 2 2 2 4 4 5 7 9 11
32 32 32 33 34 35 34 34 34 34 35 34 32 32 33 33 32 31 30 29 29 30 28 26 26 27 25 24 23 22 21 20 19 20 20 20 20 20 20 21 21 21 21 22 22 22 22 22 23 22 21 21 21 18 15 14 15 14 15 15 14 13 12 11 10 9 9 8 7 8 8 7 4 2 3 4 4 3 4 4 5 5 7 8 10
32 32 32 33 34 35 35 35 34 33 34 34 34 34 34 33 32 31 31 31 31 31 30 28 28 27 25 24 23 22 20 19 19 20 20 20 20 20 21 21 21 21 22 22 22 23 23 22 23 22 21 21 20 17 15 16 16 17 17 16 14 13 11 10 10 9 9 9 8 7 7 6 4 3 5 6 6 5 6 6 6 6 6 8 10
29 31 32 32 34 35 35 35 34 33 34 34 34 34 34 33 32 32 31 31 31 31 30 29 29 28 26 25 24 22 21 20 20 20 21 21 21 21 21 21 22 22 23 23 23 24 23 22 23 23 20 18 18 17 17 17 18 19 17 15 14 13 12 11 10 10 9 9 9 8 7 7 6 5 6 7 7 6 6 7 7 6 7 10 11
28 30 32 33 35 36 36 35 34 34 34 34 33 34 34 33 32 32 31 30 30 30 30 29 29 29 27 26 24 23 22 21 21 21 21 22 22 22 22 23 22 23 24 24 24 25 23 22 23 23 19 17 16 17 18 18 20 20 18 15 15 15 14 13 11 10 10 9 9 9 8 7 7 7 7 9 8 7 6 7 6 5 7 8 9
28 30 32 34 35 35 36 36 35 34 34 34 33 33 33 33 33 33 33 31 31 31 31 30 30 29 27 25 24 23 23 22 21 21 22 22 23 23 24 23 23 23 24 24 25 25 24 23 25 23 18 16 15 16 17 19 20 20 18 16 15 15 15 14 13 11 10 9 9 10 9 9 8 8 9 9 9 8 7 7 6 5 7 8 9
31 32 33 34 35 35 35 36 36 35 34 33 34 34 34 34 34 34 34 34 34 33 31 30 31 29 27 25 24 24 23 22 22 22 23 23 23 24 25 24 23 24 24 24 25 26 25 25 26 23 18 15 15 15 16 19 21 20 18 17 16 17 16 15 14 12 10 10 10 9 9 9 9 9 9 9 9 9 8 8 7 7 8 9 10
32 33 32 33 34 34 35 36 36 36 34 33 34 35 35 34 34 34 33 33 33 32 31 31 31 30 28 26 25 26 25 23 23 23 24 24 25 26 26 25 24 25 25 25 26 27 27 27 26 23 18 17 17 16 15 18 20 20 19 19 18 17 14 12 13 13 12 11 11 10 10 9 9 9 9 9 8 8 8 8 8 8 9 10 10
29 30 31 33 34 35 36 37 36 35 34 35 35 34 34 35 35 34 33 32 31 31 31 31 31 29 28 27 27 27 26 24 23 23 24 25 26 28 28 26 25 25 26 27 27 27 28 27 27 23 20 19 19 16 15 16 18 19 20 19 17 15 13 11 10 11 13 13 13 12 11 11 10 9 9 8 8 7 8 8 9 9 10 11 11
28 30 32 34 34 35 36 36 35 35 35 37 36 34 33 33 32 33 34 33 30 28 28 28 28 27 27 28 28 28 26 24 23 23 24 25 27 28 29 27 25 25 27 28 28 27 27 26 25 23 21 20 19 17 16 16 17 18 18 17 15 15 15 14 11 11 13 14 15 15 14 13 12 10 10 9 8 7 8 9 10 10 11 11 11
30 31 33 34 34 35 36 36 35 35 35 36 36 34 33 31 30 30 30 28 25 25 26 27 26 25 25 26 26 26 26 25 23 22 23 25 28 29 29 27 26 26 27 28 27 27 26 24 24 23 21 20 18 17 18 18 18 17 16 15 15 15 16 16 14 13 13 15 16 16 15 13 13 12 11 10 10 9 9 10 11 12 12 12 12
30 31 32 33 34 35 36 36 35 35 36 36 34 32 31 30 30 29 28 27 26 27 29 29 27 25 24 24 24 25 25 25 24 22 23 25 28 29 30 29 27 26 27 27 26 26 23 21 21 21 22 21 17 16 17 20 20 19 17 15 15 16 17 17 16 15 15 16 16 17 15 14 13 13 12 11 11 11 11 11 11 12 13 13 13
29 31 32 33 35 35 34 34 35 35 37 37 34 31 31 30 30 30 30 30 30 28 28 28 27 26 24 24 24 25 25 24 23 23 24 25 27 29 29 30 29 28 27 26 26 25 22 19 19 20 21 21 18 14 15 18 20 21 19 17 17 17 17 17 17 17 17 18 18 17 16 14 12 12 12 12 13 13 13 13 13 13 14 14 14
30 31 33 34 35 34 31 31 33 35 37 37 35 35 35 34 32 32 32 31 29 25 24 24 24 23 22 22 23 23 23 22 22 23 24 26 27 29 30 30 30 28 27 25 24 23 21 19 19 20 21 21 19 16 15 16 18 21 21 20 20 19 18 18 18 19 19 19 19 18 16 14 13 12 12 13 14 14 15 15 15 14 14 15 15
28 28 30 32 32 32 31 30 31 33 35 35 34 34 36 36 34 32 31 28 23 20 19 19 19 18 18 19 20 22 21 21 22 23 25 27 27 28 30 31 30 28 26 25 24 22 20 19 19 19 19 20 19 18 16 16 17 19 20 20 21 20 19 19 20 20 20 20 19 18 16 15 14 14 13 13 14 14 14 14 13 12 12 13 14
28 28 30 31 31 32 33 32 32 32 32 33 33 33 34 34 33 32 32 29 27 25 25 25 24 24 24 23 21 20 20 22 24 25 26 27 27 28 29 30 31 30 28 27 24 21 19 18 18 17 18 19 19 18 18 18 19 19 19 20 21 21 21 20 21 21 21 20 20 18 16 15 15 15 14 14 14 14 14 13 12 11 11 12 13
30 29 30 30 30 32 34 34 33 32 30 30 31 31 32 34 34 33 32 31 30 30 30 30 30 29 28 26 25 23 22 24 25 24 23 25 26 27 28 29 31 31 30 28 25 21 19 17 17 17 18 18 18 18 18 19 19 19 19 19 20 21 21 21 22 23 22 21 19 18 16 16 16 16 15 15 15 14 14 13 12 12 12 13 14
30 27 27 27 28 30 32 31 31 31 31 31 28 25 24 26 28 29 28 28 28 27 27 28 29 28 27 26 26 23 20 18 18 18 20 22 24 24 25 27 29 30 30 28 24 21 18 17 17 17 18 19 19 19 18 18 18 18 18 18 19 20 20 21 22 23 22 21 19 17 16 16 16 16 15 15 15 15 14 13 12 12 13 13 14
29 27 28 28 29 30 29 27 28 29 30 31 29 26 21 18 18 20 22 24 24 24 24 24 24 24 24 24 22 20 17 14 12 12 15 19 21 21 23 25 26 29 29 27 23 20 19 18 18 19 19 19 20 19 19 18 18 17 17 17 18 18 19 20 21 22 22 21 19 17 17 17 18 17 16 15 15 15 14 13 12 12 13 13 15
31 29 29 29 30 31 29 28 28 27 26 27 28 28 25 21 17 14 15 17 19 20 21 21 20 19 20 19 17 16 16 14 12 10 11 15 17 18 20 21 23 25 26 25 23 21 20 20 20 21 21 21 21 20 20 19 18 18 17 17 17 16 16 18 19 20 20 20 19 18 18 18 17 16 15 15 15 14 13 13 13 13 12 13 14
33 30 29 30 32 32 31 30 29 29 29 28 27 27 27 24 21 18 15 14 15 16 17 17 17 16 15 14 14 13 13 12 11 9 9 11 13 14 16 17 19 20 22 22 22 21 21 21 22 22 22 22 22 22 22 21 21 20 20 19 18 17 15 15 15 17 18 18 17 17 16 15 14 14 15 14 14 13 13 14 13 12 11 11 11
33 33 33 34 33 32 31 31 29 29 29 29 28 28 27 25 25 23 20 17 15 15 15 15 14 12 12 12 13 13 11 10 10 9 8 9 11 12 14 15 16 17 19 21 21 21 21 22 22 22 22 22 22 22 22 22 22 22 22 21 21 19 17 15 14 14 15 16 16 14 13 12 13 14 15 15 14 14 13 13 11 9 8 8 8
29 32 34 34 32 30 30 31 30 29 29 28 28 28 27 25 26 26 24 22 20 17 16 15 14 12 11 12 13 12 11 10 10 9 11 12 13 14 15 17 18 18 18 19 20 20 21 21 21 21 21 21 21 21 21 21 21 21 21 21 21 21 20 19 18 16 16 16 16 14 12 12 13 14 14 14 14 14 14 12 8 6 6 7 8
27 29 31 32 32 32 32 32 32 31 30 29 28 28 27 26 25 24 23 22 21 19 17 16 14 13 13 13 13 13 12 12 12 12 13 13 14 16 18 19 20 19 19 19 19 19 20 20 20 20 19 19 18 18 18 18 18 19 19 20 20 20 20 20 20 19 18 18 17 15 14 14 14 12 12 13 14 15 14 11 8 6 7 8 9
28 28 28 27 28 30 30 30 30 30 29 28 27 26 24 23 23 22 21 21 21 20 19 18 17 17 16 15 15 15 14 14 13 12 12 12 13 15 17 17 17 18 18 18 18 18 19 19 18 18 18 17 16 16 16 16 16 17 17 18 19 19 19 19 20 20 20 20 19 17 16 15 14 12 12 13 14 15 13 11 9 8 9 10 9
27 27 27 26 26 27 28 27 27 27 26 25 25 24 23 21 21 21 20 20 20 19 19 20 20 20 19 19 18 17 16 15 14 14 14 13 14 15 15 15 15 16 16 15 16 16 16 16 16 16 16 15 14 14 14 14 15 15 16 16 17 17 17 17 18 19 19 20 19 18 17 16 14 12 12 14 15 14 13 13 11 10 11 11 9
25 26 27 27 27 27 28 28 27 26 25 24 23 23 22 21 20 19 18 18 18 18 19 19 19 19 19 20 20 19 18 17 16 16 16 16 15 14 14 15 15 15 14 14 14 14 14 14 14 14 14 13 12 12 12 12 13 13 14 14 15 15 16 16 16 17 17 18 18 17 17 16 14 13 14 15 15 14 14 14 12 12 12 10 9
25 26 27 27 27 27 28 28 27 26 25 24 23 22 21 20 20 19 18 18 18 18 17 18 18 18 18 19 20 20 20 20 19 18 18 17 16 15 15 15 15 14 14 14 13 13 13 13 13 13 12 11 10 10 10 10 10 10 11 12 13 14 14 14 14 15 15 15 15 16 16 16 15 16 17 16 15 13 13 13 12 12 11 10 11
27 27 26 26 27 27 26 26 26 25 24 24 23 22 21 19 18 18 18 18 18 18 17 16 16 16 15 16 17 18 18 18 18 18 18 17 16 16 15 14 14 14 13 13 12 12 13 13 12 12 12 11 10 9 8 8 8 8 9 10 11 11 11 11 12 12 12 12 13 14 16 17 17 18 18 17 14 12 11 11 11 11 10 11 12
29 28 27 26 26 27 26 25 25 24 23 23 22 21 20 19 18 17 17 16 16 16 16 14 13 13 12 12 12 12 13 13 13 14 15 14 14 13 13 12 12 12 12 11 11 12 13 12 12 12 11 10 10 9 8 7 7 7 8 9 9 10 10 10 10 11 11 13 15 16 17 17 17 17 16 14 11 9 9 10 10 11 12 13 13
28 28 27 27 26 26 26 26 25 24 23 22 21 19 18 18 17 16 16 15 14 14 14 13 11 10 10 9 9 10 10 10 9 10 10 10 10 10 10 10 11 10 10 10 11 12 12 11 11 11 10 10 10 9 8 7 7 6 7 8 9 10 10 10 10 11 12 13 14 14 14 15 15 15 14 12 11 10 10 11 11 12 13 14 14
27 27 26 25 25 24 25 25 25 24 22 21 20 19 18 18 18 16 15 14 13 12 11 11 10 9 9 9 10 10 10 10 9 9 8 8 8 8 9 9 10 10 10 10 10 10 9 9 9 9 9 9 10 9 9 8 7 7 7 8 9 9 10 10 9 9 9 10 9 9 9 10 12 13 13 13 12 13 13 13 13 13 14 14 13
25 25 24 23 23 23 23 23 22 22 21 20 20 19 18 17 16 15 13 13 12 11 10 10 9 9 9 9 9 8 8 8 8 7 7 6 7 8 8 9 9 8 8 7 7 6 6 6 6 7 8 8 9 9 9 8 8 8 8 8 9 9 9 8 7 6 6 7 6 6 7 6 7 9 12 13 13 14 15 15 15 13 12 12 11
22 22 22 22 22 22 21 21 21 21 21 21 20 19 17 16 14 13 12 11 11 11 10 9 9 8 7 7 6 6 6 6 6 6 6 6 7 7 7 7 7 6 5 5 5 5 5 4 5 5 6 6 7 8 8 8 8 9 9 9 10 9 8 7 6 7 7 7 6 7 6 5 6 8 10 12 12 13 13 13 14 13 12 12 12
22 22 22 22 23 22 22 21 21 21 20 19 18 17 16 15 13 12 12 11 11 11 10 10 9 8 8 7 6 6 5 5 5 5 6 6 6 6 6 6 5 5 5 4 4 4 4 4 4 4 5 5 5 6 6 7 7 8 9 10 11 11 10 9 9 8 8 8 8 8 8 8 8 9 10 10 11 11 11 12 13 13 14 14 14
23 23 23 23 23 23 22 21 20 19 18 17 16 15 14 14 13 13 12 12 11 10 9 9 9 8 8 7 7 6 6 6 6 5 6 5 5 5 5 5 4 4 4 4 4 5 4 4 4 4 4 4 4 4 5 5 6 8 9 11 12 12 12 11 11 11 10 10 10 10 11 11 12 12 11 11 12 12 13 13 14 14 15 15 16
22 23 22 22 22 21 20 19 18 17 16 16 15 14 13 12 12 12 11 11 10 9 8 8 8 8 7 6 6 6 6 6 6 6 6 6 5 4 4 3 3 3 4 5 5 6 6 5 5 4 4 4 4 4 4 5 5 7 9 10 12 13 13 13 13 13 12 12 12 13 13 14 15 15 15 14 14 14 15 15 15 15 16 17 18
20 20 20 20 20 19 18 17 16 15 14 14 13 12 11 10 10 10 9 9 8 8 7 6 6 6 6 5 5 5 6 6 6 6 6 5 4 4 3 2 2 2 2 4 5 7 7 7 6 5 5 4 4 4 4 4 5 5 7 8 10 12 13 13 14 14 13 14 14 15 15 16 17 17 17 17 17 17 17 16 16 17 18 18 19
19 19 18 18 18 18 17 17 16 15 13 13 12 11 10 9 8 7 7 7 7 7 6 5 5 5 5 5 5 5 6 6 6 6 6 6 6 6 5 3 2 1 1 2 4 5 7 7 7 6 6 5 5 5 5 5 6 6 7 8 10 11 13 14 14 14 14 14 15 15 16 17 18 18 18 18 18 18 17 17 17 18 19 19 20
Wind_Direction
194 196 197 198 199 200 200 200 200 200 200 200 201 202 205 206 208 210 207 204 204 205 205 206 209 212 216 220 222 224 225 224 227 229 226 224 222 222 220 214 210 210 208 204 202 205 209 207 204 203 203 201 194 188 186 183 187 189 192 201 202 202 201 183 152 144 157 155 153 153 135 106 91 76 72 60 46 45 46 44 42 41 39 35 27
193 195 195 197 199 199 199 198 197 199 198 198 199 200 202 204 207 209 206 204 205 206 206 207 210 213 216 219 220 224 226 226 225 221 219 219 217 215 215 211 209 207 204 204 203 204 208 206 201 198 196 195 190 185 181 175 176 178 174 182 185 181 188 181 156 145 151 152 150 148 132 123 116 98 78 54 39 39 44 48 48 45 45 39 29
192 193 193 196 198 198 197 196 196 197 196 196 197 199 201 202 206 209 207 206 207 207 209 210 210 212 215 218 220 223 226 226 224 216 212 213 212 211 211 209 208 206 204 205 205 204 204 201 198 195 190 190 186 181 180 177 175 173 161 161 170 169 179 183 167 151 146 147 151 148 137 137 128 108 78 44 30 27 31 39 43 44 43 36 28
189 190 192 195 196 196 195 194 194 195 195 195 196 198 200 201 204 207 207 207 206 206 208 210 210 212 214 217 219 220 223 223 222 217 213 215 215 212 210 209 209 212 211 209 207 205 203 199 196 193 189 188 185 180 178 176 173 170 153 142 149 152 159 174 175 164 154 148 147 149 147 141 130 106 59 32 21 20 22 26 31 35 36 32 22
187 189 190 192 194 194 194 192 193 194 194 194 195 197 198 199 201 203 204 205 205 205 206 207 210 213 216 219 219 218 220 221 220 218 216 218 219 219 216 213 213 214 214 213 211 208 205 201 196 193 190 189 185 181 179 175 172 170 156 141 141 146 152 162 171 172 164 155 150 156 155 143 129 79 28 15 6 8 13 21 27 24 25 29 24
187 187 188 190 192 193 192 191 193 194 193 192 194 196 197 198 199 200 202 203 203 204 205 207 210 214 218 219 220 219 220 219 219 219 219 219 220 220 218 216 216 214 213 213 212 209 206 202 198 194 194 194 190 184 182 179 176 174 168 158 152 150 153 154 155 163 166 161 158 158 156 154 149 63 16 6 1 359 2 18 30 22 16 18 21
185 185 187 188 190 191 191 191 192 193 192 192 193 195 197 199 199 200 202 202 202 203 205 208 211 215 218 219 219 221 220 219 219 220 220 219 219 218 216 215 214 212 211 210 209 208 203 200 198 196 196 199 195 187 182 181 181 184 186 184 180 173 168 163 161 164 165 163 161 162 165 171 172 155 3 357 359 355 356 11 22 19 13 11 9
183 184 186 187 190 191 190 190 190 191 191 191 193 196 198 199 199 200 201 201 203 206 207 209 212 214 217 218 219 220 219 219 219 218 218 218 218 218 216 214 211 209 207 206 205 204 200 198 199 197 196 197 196 192 191 195 197 197 202 207 203 193 182 176 171 170 170 168 166 169 175 177 172 170 314 351 355 350 358 11 14 11 7 6 6
182 183 185 187 189 189 187 187 188 189 189 190 193 196 198 198 197 199 201 202 205 207 209 211 213 213 214 216 218 219 219 221 221 219 218 215 216 218 216 214 212 207 203 202 202 200 197 197 198 197 196 196 199 202 209 216 216 212 211 212 208 200 191 184 177 173 172 170 170 173 178 180 175 177 232 355 351 341 358 14 13 6 357 0 9
182 183 185 187 188 186 184 184 185 186 188 191 193 194 195 195 195 197 200 203 205 207 209 212 213 214 214 214 216 218 220 222 223 222 221 218 218 217 214 213 211 208 204 200 197 196 196 197 197 197 199 200 204 209 214 219 221 223 225 219 210 203 195 186 179 176 174 172 175 179 182 184 181 178 211 302 327 333 0 9 4 358 352 355 4
183 184 186 186 184 183 182 183 184 185 187 190 191 191 191 192 193 196 199 202 205 207 209 211 212 214 215 216 217 218 220 222 224 223 222 222 221 217 214 213 210 209 207 201 197 196 197 198 198 198 201 203 207 213 218 220 220 224 232 228 218 211 199 187 179 178 178 177 179 184 187 189 184 178 217 257 265 303 351 1 352 349 349 345 343
183 184 185 184 181 181 182 182 182 182 185 187 188 188 188 190 192 194 196 200 203 204 207 209 211 213 215 217 218 220 221 223 224 223 222 222 222 220 217 214 210 209 207 204 200 197 196 197 197 200 203 206 211 217 221 223 221 223 226 220 215 211 203 194 186 183 184 182 183 190 194 191 186 188 235 245 227 253 320 343 341 340 343 336 327
183 183 183 181 179 179 180 180 180 180 182 185 186 185 186 189 191 192 195 198 201 202 204 207 210 212 213 216 218 220 222 224 224 223 222 221 220 220 218 216 213 209 207 204 201 198 197 197 198 202 205 209 217 224 226 221 219 220 213 199 192 194 196 197 192 188 189 189 192 197 197 195 197 210 245 250 236 243 290 320 328 325 331 334 331
182 181 180 179 178 178 179 179 179 179 180 183 184 184 186 189 191 193 195 196 198 199 200 204 209 211 214 217 218 220 223 225 224 222 222 221 219 219 219 217 214 211 208 206 204 203 203 202 204 207 208 212 220 228 230 223 216 210 199 186 183 188 193 196 198 199 201 207 211 206 200 206 217 240 268 263 251 261 283 302 313 312 321 333 335
180 180 179 178 178 178 178 178 178 177 178 181 183 184 186 188 189 192 195 196 198 199 200 203 206 208 213 216 218 220 223 224 223 222 221 219 218 218 218 216 214 212 210 209 209 210 210 210 213 214 215 220 228 233 233 225 215 205 196 190 192 198 203 208 210 214 219 223 223 215 213 228 236 246 269 262 250 262 277 289 300 302 317 331 335
179 179 178 177 177 178 178 177 175 175 177 179 181 182 184 187 189 191 193 196 197 198 199 202 204 206 211 214 216 220 222 221 221 221 220 218 216 216 216 214 213 213 210 211 214 215 216 218 218 217 222 232 238 238 234 224 213 207 201 199 205 211 217 220 221 226 229 229 228 223 228 240 237 239 258 252 245 257 274 286 295 299 315 325 327
179 178 178 178 178 178 177 175 174 175 177 179 180 181 184 187 188 190 190 190 192 195 199 202 204 207 210 212 215 219 219 218 218 218 217 216 214 214 215 214 213 213 212 214 216 218 221 223 218 218 230 242 243 241 234 222 213 211 208 210 217 223 226 228 229 234 235 235 234 233 242 253 244 238 248 246 240 248 270 283 290 296 308 312 310
179 179 179 179 179 178 177 175 175 176 178 178 178 180 183 187 190 192 192 190 192 197 200 202 204 207 211 214 217 219 219 216 215 216 216 216 214 214 214 212 211 212 214 216 219 221 223 221 219 224 238 245 243 240 232 220 213 213 216 220 226 232 234 234 235 239 240 239 239 241 253 264 254 240 242 241 237 243 263 279 284 287 294 292 292
182 182 181 180 178 176 175 176 176 178 178 178 178 181 185 188 191 193 193 193 195 198 200 200 202 206 212 216 217 219 219 216 213 215 215 214 213 214 214 212 212 214 217 218 219 220 222 220 221 229 240 242 240 239 232 220 214 216 221 229 238 245 246 244 245 246 244 241 243 251 261 264 253 242 239 237 237 246 261 272 274 277 284 289 293
185 182 179 176 175 173 174 176 178 179 178 178 181 185 187 189 191 191 190 191 194 195 197 199 202 206 212 215 216 218 219 216 213 214 215 214 213 214 213 214 215 217 218 218 218 219 221 222 224 230 236 236 238 241 235 224 220 224 230 236 245 253 255 256 255 251 246 244 247 257 265 259 246 239 236 232 235 248 260 261 263 271 279 288 297
182 177 175 173 172 173 175 178 180 180 180 181 185 188 188 190 190 188 187 189 192 193 194 197 200 207 212 213 214 218 219 218 215 214 215 215 214 213 215 218 221 221 219 218 220 221 223 226 228 230 232 233 237 240 234 226 226 232 237 240 247 254 258 268 272 258 249 249 252 260 267 260 247 237 232 230 233 248 261 256 255 267 277 285 295
177 173 172 172 172 172 175 180 182 182 182 185 186 186 187 188 187 186 188 190 191 189 189 192 198 205 209 210 212 215 217 219 218 216 217 218 216 215 218 222 224 223 220 218 220 223 227 231 233 233 233 234 238 239 232 226 227 234 240 243 247 252 257 267 275 266 254 253 257 264 269 264 252 242 235 235 237 248 260 256 251 260 273 285 293
173 172 169 169 170 172 176 180 182 181 183 186 185 183 182 183 182 185 187 185 181 181 186 191 197 201 203 206 209 213 216 218 217 217 219 221 219 218 221 224 225 225 223 223 224 226 229 234 237 237 235 234 238 239 232 227 229 235 241 245 249 255 257 259 265 266 261 259 262 268 271 265 254 247 241 240 242 248 255 257 255 260 268 280 293
171 168 167 166 168 173 177 180 181 182 184 186 183 177 175 176 178 182 185 183 181 185 187 190 194 197 198 200 204 209 214 216 216 218 221 223 222 221 222 223 225 226 227 229 232 231 232 238 243 243 238 235 240 245 239 233 234 237 242 249 254 257 256 255 259 263 263 264 268 272 273 266 258 253 248 246 246 249 254 259 264 268 271 277 287
169 165 164 164 168 174 177 179 181 182 184 184 179 171 170 172 174 178 184 187 188 188 186 188 192 194 196 197 200 205 211 213 214 218 221 223 223 222 222 223 226 228 229 232 235 235 237 244 249 248 242 238 242 250 247 240 239 239 242 250 256 257 256 255 255 257 260 263 269 274 274 271 268 265 257 253 251 254 261 267 271 273 275 279 285
171 165 162 166 172 175 175 175 176 178 180 182 179 175 174 176 176 178 184 189 190 187 185 186 189 192 195 197 198 202 207 209 212 217 219 220 220 221 221 221 223 226 229 232 234 235 239 245 248 248 244 239 241 251 253 246 241 240 243 250 254 255 254 253 251 253 257 261 268 274 277 277 277 274 266 260 259 262 269 276 277 274 274 279 285
169 165 165 170 174 174 172 169 169 172 176 179 178 175 176 178 177 178 182 182 179 180 184 185 186 191 197 198 199 202 206 208 211 216 218 218 218 218 218 219 219 221 225 229 232 234 237 240 241 245 245 241 241 247 249 243 240 241 245 249 251 251 252 252 251 253 257 262 267 273 277 281 281 277 273 269 266 268 274 279 281 279 277 279 285
164 166 170 173 174 174 173 170 168 171 175 176 174 174 176 178 178 182 186 184 181 184 189 192 195 200 200 198 197 198 203 211 216 217 217 217 217 216 217 218 219 220 222 226 229 230 233 234 234 237 241 240 239 240 239 239 240 244 248 248 247 249 251 250 249 251 255 258 264 270 278 283 283 280 279 275 271 273 279 281 281 282 281 282 286
171 172 173 173 172 173 172 172 171 170 169 171 173 175 179 182 184 188 192 194 195 196 197 199 203 205 202 200 198 195 201 215 224 223 219 218 219 219 220 220 221 222 224 226 227 226 226 227 229 231 234 235 234 233 234 236 240 244 248 248 247 247 247 246 246 250 253 255 261 270 279 284 283 282 280 277 274 276 280 281 279 278 280 282 285
172 173 172 172 172 171 170 171 170 166 165 167 168 168 175 183 187 189 190 194 199 203 205 207 210 209 207 207 208 208 214 228 233 228 222 221 223 225 227 227 226 225 225 224 225 225 223 223 224 226 227 229 230 231 233 235 238 242 246 247 248 248 248 248 249 251 253 255 261 269 276 280 281 280 277 274 273 275 279 283 282 278 278 280 285
167 170 173 173 172 170 167 166 165 163 163 164 162 158 158 165 177 187 189 191 196 202 206 210 213 213 212 211 211 214 224 233 234 228 224 223 223 226 228 229 228 227 226 224 223 223 222 221 221 223 224 227 229 232 235 237 239 242 245 249 252 253 253 255 255 253 252 254 259 266 273 277 279 277 276 277 279 280 282 286 288 284 281 280 285
167 170 170 169 167 165 163 163 163 161 158 158 158 156 153 148 150 164 179 188 194 201 205 208 210 212 213 213 211 212 218 222 224 224 220 218 220 224 227 229 229 229 229 226 223 223 223 223 222 223 224 227 230 234 237 240 243 247 249 252 256 259 262 266 263 255 251 252 258 267 275 280 280 279 280 283 284 285 284 284 285 285 282 283 287
168 166 163 161 161 162 162 162 161 158 156 156 157 158 158 154 148 146 154 171 187 196 202 207 210 210 210 211 211 212 214 216 217 213 205 203 207 213 219 224 227 227 225 222 222 224 226 227 227 229 230 233 236 239 242 245 249 252 254 256 258 261 268 274 269 256 249 250 258 271 280 284 284 283 283 281 280 279 279 280 282 281 280 284 292
165 163 162 160 159 159 160 159 158 157 159 161 162 164 165 165 160 154 152 157 167 179 188 192 197 199 199 199 202 203 204 206 207 202 188 180 185 196 205 211 215 218 222 223 225 228 229 229 232 235 238 240 242 243 245 248 251 252 254 256 257 258 261 264 259 249 243 247 258 270 279 281 281 281 279 277 276 275 274 273 272 271 274 283 293
157 158 159 157 155 154 155 156 157 158 160 163 165 167 169 171 170 167 164 164 165 169 173 174 175 180 185 189 194 195 196 197 196 187 177 175 181 188 195 198 201 206 213 220 226 229 231 233 237 240 242 244 245 247 249 252 253 254 255 255 256 256 255 254 249 242 238 243 253 263 268 272 276 278 277 275 272 271 271 268 259 255 265 275 282
147 148 151 153 154 154 156 158 159 161 163 166 168 170 171 172 172 170 170 170 169 166 166 166 170 176 181 184 186 187 188 192 191 185 183 186 189 191 193 196 200 205 211 217 223 228 232 237 241 244 246 248 249 251 254 256 258 260 260 259 259 257 254 251 249 246 243 247 253 258 262 267 273 278 282 282 277 271 267 257 239 238 253 261 271
144 145 147 152 154 153 152 154 157 160 163 164 164 166 167 168 168 168 169 171 170 166 165 165 168 173 176 179 182 184 185 188 190 190 192 196 198 199 200 201 204 209 215 221 226 231 236 242 246 250 252 253 255 258 260 261 263 264 263 262 261 259 256 254 253 252 254 257 258 260 263 266 269 274 284 291 287 276 260 239 226 238 254 257 265
144 147 149 151 150 147 145 146 150 154 156 157 160 162 161 162 166 167 167 167 166 164 165 168 173 177 179 180 183 186 186 186 189 192 194 196 198 202 205 208 213 218 223 229 233 237 242 248 253 256 257 259 261 265 267 266 265 264 263 262 262 261 260 259 257 257 260 261 260 262 265 265 266 273 284 292 291 277 251 228 226 243 254 255 261
141 145 149 151 149 146 144 144 145 148 150 152 156 159 159 159 161 161 160 162 163 164 168 173 179 185 187 185 185 185 185 187 192 194 195 198 203 207 211 216 223 228 233 237 240 242 247 253 257 259 261 262 266 270 274 273 271 268 265 263 262 261 260 259 259 260 260 260 260 261 261 261 266 276 282 285 284 268 242 227 235 250 256 261 271
140 143 147 149 147 145 145 145 145 148 150 153 156 160 161 161 161 160 160 161 164 168 173 179 185 191 193 192 191 190 189 192 196 200 202 204 210 215 219 223 228 233 238 240 242 246 252 258 262 263 265 267 271 276 280 279 274 269 265 262 260 260 260 260 262 262 261 259 258 256 256 262 273 281 280 277 271 256 238 235 246 255 259 268 277
142 143 146 147 145 144 143 144 146 150 153 156 159 162 164 165 164 164 165 166 168 172 177 184 190 192 192 193 195 195 196 198 201 205 208 211 215 220 224 228 235 241 244 246 249 255 262 265 267 267 265 265 269 275 277 274 267 263 259 256 255 257 258 258 258 259 259 259 258 260 264 271 276 277 273 268 258 244 235 238 248 255 263 271 276
143 143 143 144 144 144 143 144 147 151 153 156 160 162 163 164 165 166 167 168 171 174 176 180 185 183 181 183 187 193 199 204 206 210 214 218 223 226 228 234 242 248 252 255 259 263 266 268 268 266 264 262 266 271 271 267 266 265 261 257 255 254 255 256 256 257 260 262 264 267 269 270 269 267 263 255 243 230 231 241 249 256 265 271 274
141 141 141 142 144 146 146 146 149 151 152 155 157 158 158 159 161 164 166 166 169 172 172 173 173 170 168 169 175 185 196 203 207 212 217 221 226 229 232 240 248 254 259 262 264 265 267 268 267 265 262 261 263 266 266 264 266 267 263 261 258 256 257 259 259 260 262 263 265 269 269 264 260 255 245 232 223 225 235 244 250 256 264 271 275
138 138 139 141 142 144 146 147 148 149 150 151 151 151 154 155 156 159 159 158 159 161 161 161 160 157 156 161 169 181 192 199 204 211 217 221 228 236 243 249 253 255 257 260 262 263 264 263 260 258 257 255 255 257 258 258 260 262 262 260 255 252 253 255 256 256 258 258 265 279 283 269 253 240 228 224 230 240 244 246 251 258 265 270 271
135 135 136 137 138 140 142 143 144 146 147 148 149 152 153 153 151 151 151 148 147 148 149 149 147 146 149 157 165 174 185 196 206 215 223 230 238 244 248 250 252 252 252 252 254 254 252 250 249 247 246 245 246 249 251 253 254 255 254 253 250 246 243 244 246 245 241 244 264 298 313 297 260 240 234 238 248 254 254 253 256 259 260 261 265
134 135 136 136 137 138 139 142 144 147 149 150 151 151 151 150 148 148 149 147 147 149 152 153 153 155 160 167 173 177 185 194 202 210 220 228 232 237 242 245 246 244 241 239 238 236 234 238 241 239 235 234 236 239 241 242 242 242 241 242 243 241 235 235 237 232 228 238 267 294 302 292 266 249 244 247 253 258 260 258 257 256 256 260 269
137 138 140 141 140 140 142 144 147 148 149 149 147 146 146 147 147 148 151 153 154 156 158 160 166 174 182 188 192 194 193 197 199 201 208 216 223 230 239 245 245 241 236 229 223 220 220 226 231 229 227 228 228 230 232 234 236 237 237 236 237 236 232 232 234 233 234 247 267 277 276 271 263 253 247 247 250 256 262 263 263 265 265 266 269
140 141 143 143 141 140 142 144 145 145 145 144 144 145 147 149 150 152 156 157 157 157 159 162 169 175 179 184 190 192 193 199 202 198 198 206 220 233 241 245 245 239 231 222 218 216 218 220 221 220 221 225 226 228 232 234 236 237 237 237 236 235 232 231 233 236 241 249 258 262 262 261 258 252 247 246 247 252 261 267 271 274 273 269 270
138 138 138 138 136 136 138 139 140 140 141 142 144 147 150 153 155 157 158 158 157 157 160 162 165 167 168 170 177 187 195 202 205 203 200 204 214 230 242 245 241 237 233 229 224 220 217 214 215 214 212 216 223 228 231 235 238 238 239 238 236 234 233 232 232 235 239 243 248 251 252 253 252 250 248 248 250 254 261 267 273 276 273 270 270
131 131 132 132 131 131 131 131 132 134 137 140 143 145 148 152 156 158 159 160 160 160 162 164 166 166 162 159 170 190 200 201 199 198 198 197 196 200 206 206 207 224 241 240 232 225 217 211 210 211 210 212 219 226 228 230 233 234 234 234 232 229 228 228 228 228 231 236 240 244 248 250 250 250 249 250 252 255 260 265 270 273 273 272 273
130 130 130 130 128 128 129 130 131 132 133 134 136 137 140 146 152 156 160 164 165 167 171 176 175 169 160 156 167 185 193 194 193 191 189 186 183 177 172 171 188 241 264 255 240 228 217 209 208 209 211 214 220 225 226 227 227 226 225 226 224 222 222 222 222 224 228 233 238 243 246 248 249 250 250 252 254 257 261 266 269 271 274 274 274